Weather History for Oujda, Morocco

Change the Weather History Date:

Friday, November 11, 2011

  Actual Average Record
Temperature  
Mean Temperature 66 °F -  
Max Temperature 81 °F 64 °F 82 °F (2002)
Min Temperature 50 °F 44 °F 41 °F (2004)
Growing Degree Days 16 (Base 50)    
Moisture  
Dew Point 46 °F    
Average Humidity 56    
Maximum Humidity 82    
Minimum Humidity 15    
Precipitation  
Precipitation 0.00 in 0.05 in - ()
Sea Level Pressure  
Sea Level Pressure 30.07 in    
Wind  
Wind Speed 4 mph ()    
Max Wind Speed 7 mph    
Max Gust Speed -    
Visibility 14.9 miles    
Events      
Averages and records for this station are not official NWS values.
T = Trace of Precipitation, MM = Missing Value Source: Averaged Metar Reports

Daily Weather History Graph

Daily Weather History Graph

Search for Another Location

Airport:

Trip Planner

Search our weather history database for the weather conditions in past years. The results will help you decide how hot, cold, wet, or windy it might be!

Date:

Astronomy

Nov. 11, 2011 Rise Set
Actual Time 6:37 AM WET 5:05 PM WET
Civil Twilight 6:10 AM WET 5:32 PM WET
Nautical Twilight 5:40 AM WET 6:02 PM WET
Astronomical Twilight 5:10 AM WET 6:32 PM WET
Moon 5:27 PM WET (11/11) 7:09 AM WET (11/11)
Length of Visible Light 11h 21m
Length of Day
10h 28m
Full, 100% of the Moon is Illuminated
Nov 11
Full
Nov 18
Last Quarter
Nov 25
New
Dec 2
First Quarter
Dec 10
Full

Hourly Weather History & Observations

Time (WET) Temp. Dew Point Humidity Pressure Visibility Wind Dir Wind Speed Gust Speed Precip Events Conditions
12:00 AM 52 °F 46 °F 73% 30.10 in 16 mi SW 3.5 mph - -  
12:00 AM 51.8 °F 46.4 °F 82% 30.09 in - SW 3.5 mph - N/A   Clear
1:00 AM 51.8 °F 46.4 °F 82% 30.06 in - SW 5.8 mph - N/A   Clear
2:00 AM 50.0 °F 44.6 °F 82% 30.06 in - SW 3.5 mph - N/A   Clear
3:00 AM 51 °F 44 °F 70% 30.08 in 16 mi South 6.9 mph - -  
3:00 AM 50.0 °F 44.6 °F 82% 30.06 in - South 6.9 mph - N/A   Clear
5:00 AM 51.8 °F 41.0 °F 67% 30.06 in - SSW 4.6 mph - N/A   Clear
7:00 AM 53.6 °F 39.2 °F 58% 30.06 in - SSW 5.8 mph - N/A   Clear
8:00 AM 60.8 °F 42.8 °F 52% 30.09 in - South 6.9 mph - N/A   Clear
9:00 AM 68 °F 44 °F 30% 30.07 in 12 mi SSE 4.6 mph - -  
9:00 AM 68.0 °F 44.6 °F 43% 30.09 in - SSE 4.6 mph - N/A   Clear
10:00 AM 71.6 °F 44.6 °F 38% 30.09 in - East 4.6 mph - N/A   Clear
11:00 AM 73.4 °F 44.6 °F 36% 30.09 in - ENE 4.6 mph - N/A   Clear
12:00 PM 76 °F 46 °F 24% 30.01 in 12 mi ENE 3.5 mph - -   Clear
12:00 PM 77.0 °F 46.4 °F 34% 30.06 in - ENE 3.5 mph - N/A   Clear
2:00 PM 80.6 °F 44.6 °F 28% 30.04 in - East 3.5 mph - N/A   Clear
3:00 PM 81 °F 42 °F 15% 29.97 in 16 mi NNE 4.6 mph - -   Clear
3:00 PM 80.6 °F 42.8 °F 26% 30.04 in - NNE 4.6 mph - N/A   Clear
5:00 PM 69.8 °F 51.8 °F 53% 30.06 in - North 5.8 mph - N/A   Clear
6:00 PM 64 °F 53 °F 58% 30.04 in 16 mi WSW 2.3 mph - -   Clear
6:00 PM 64.4 °F 53.6 °F 68% 30.06 in - Variable 2.3 mph - N/A   Clear
8:00 PM 60.8 °F 50.0 °F 68% 30.09 in - South 3.5 mph - N/A   Clear
9:00 PM 59 °F 50 °F 64% 30.09 in 16 mi SW 4.6 mph - -   Clear
9:00 PM 59.0 °F 50.0 °F 72% 30.09 in - SW 4.6 mph - N/A   Clear
10:00 PM 57.2 °F 50.0 °F 77% 30.09 in - WSW 4.6 mph - N/A   Clear
11:00 PM 57.2 °F 50.0 °F 77% 30.12 in - West 2.3 mph - N/A   Clear